FENGYUN 1C DEB

Satellite information

Favourite Embed

Satellite Type and Status

DEBRISIN ORBIT

Key statistics

Satellite FENGYUN 1C DEB at a glance.

Uptime

9715

Days in orbit

Revolutions

≈ 14.2

Per day

Orbit

SSO

Sun Synchronous Orbit

Inclination

98.8

Latest

Satellite identification and parameters

Extended collection of information and parameters for FENGYUN 1C DEB.

Object identification

Identified? True

Debris? True

Object name: FENGYUN 1C DEB

International designator: 1999-025CUW

Object number (NORAD): 32200

Object ID (CCSDS): 32200

Country: PEOPLES REPUBLIC OF CHINA (PRC)

Current information (Y/N): Y

RCS size: SMALL

Orbital parameters

Period: 101.717 minutes

Inclination: 98.7917 deg

SMA: 7218.085 km

Apoapsis: 868.545 km

Periapsis: 811.356 km

RAAN: 35.0772 deg

Eccentricy: 0.00396153

Argument of periapsis: 291.641 deg

Mean anomaly: 68.0546 deg

Mean motion: 14.15695152 rev/day

Mean motion (dot): 0.00002951 rev/day2

B* drag term: 0.001515508 1/REarth

Two-line elements (TLE)

Creation date: Dec. 12, 2025, 10:14 a.m.

Reference frame: TEME

Reference center: EARTH

Epoch: Dec. 12, 2025, 2:18 a.m. UTC

TLE line 0: 0 FENGYUN 1C DEB

TLE line 1: 1 32200U 99025CUW 25346.09617323 .00002951 00000-0 15155-2 0 9999

TLE line 2: 2 32200 98.7917 35.0772 0039615 291.6410 68.0546 14.15695152943544

Live tracking on map

Real-time ground track for satellite FENGYUN 1C DEB.

In-orbit conjunctions

A list of the most updated potential collisions computed for object FENGYUN 1C DEB.

Target Orbit TCA Probability of collision Miss distance Type
COSMOS 1066 LEO 2025-10-06 04:11:45 0.0003360045 200.0 (m) PAYLOAD
CZ-6A DEB SSO 2025-05-03 00:18:19 0.0001794491 50.0 (m) DEBRIS
METEOR 2-6 LEO 2025-01-08 14:53:23 0.00117597 153.0 (m) PAYLOAD

Associated space launch

Chinese polar orbiting meteorological satellite

FENGYUN 1C DEB was lifted into orbit during the mission ‘Long March 4B | Feng Yun 1C’, on board a Long March 4B space rocket.

The launch took place on May 10, 1999, 1:33 a.m. from Launch Complex 7.

For more information about the launch, click the button.

Launch to space Long March 4B | Feng Yun 1C
Long March 4B | Feng Yun 1C

Agency: N/A

Status: Launch Successful

Launch date: May 10, 1999, 1:33 a.m. UTC

Rocket: Long March 4B

Launch pad: Launch Complex 7

Location: Taiyuan Satellite Launch Center, People's Republic of China

...

Latest news about this satellite

There are no fresh news available about this satellite. Check back as we update our databases every day.


Newsletter sign-up

Weekly statistics, charts and insights to help you stay on top of the space industry.